Hastings, NE

9:40 AM CDT on September 25, 2016 (GMT -0500)
Hastings Municipal

Weather History for KHSI - April, 2013

Change the Weather History Date:

Saturday, April 20, 2013

  Actual Average Record
Temperature  
Mean Temperature 41 °F 52 °F  
Max Temperature 51 °F 64 °F 89 °F (1987)
Min Temperature 30 °F 40 °F 24 °F (1953)
Degree Days  
Heating Degree Days 24 13  
Month to date heating degree days 459 321  
Since 1 July heating degree days 5968 5728  
Cooling Degree Days 0 0  
Month to date cooling degree days 0 0  
Year to date cooling degree days 0 0  
Moisture  
Dew Point 26 °F    
Average Humidity 62    
Maximum Humidity 78    
Minimum Humidity 45    
Precipitation  
Precipitation 0.00 in 0.09 in 1.57 in (1977)
Month to date precipitation 1.58 1.46  
Year to date precipitation 5.05 4.15  
Snow  
Snow 0.00 in 0.00 in T in (1995)
Month to date snowfall 3.7 1.0  
Since 1 July snowfall 35.4 28.6  
Snow Depth 0.00 in    
Sea Level Pressure  
Sea Level Pressure 30.11 in    
Wind  
Wind Speed 13 mph (ESE)    
Max Wind Speed 24 mph    
Max Gust Speed 31 mph    
Visibility 10 miles    
Events      
T = Trace of Precipitation, MM = Missing Value Source: NWS Daily Summary

Daily Weather History Graph

Daily Weather History Graph

Search for Another Location

Airport or City:

Trip Planner

Search our weather history database for the weather conditions in past years. The results will help you decide how hot, cold, wet, or windy it might be!

Date:

Astronomy

Apr. 20, 2013 Rise Set
Actual Time 6:47 AM CDT 8:18 PM CDT
Civil Twilight 6:18 AM CDT 8:47 PM CDT
Nautical Twilight 5:43 AM CDT 9:22 PM CDT
Astronomical Twilight 5:07 AM CDT 9:58 PM CDT
Moon 3:02 PM CDT (4/20) 3:39 AM CDT (4/20)
Length of Visible Light 14h 28m
Length of Day
13h 31m
Waxing Gibbous, 71% of the Moon is Illuminated
Apr 20
Waxing Gibbous
Apr 25
Full
May 2
Last Quarter
May 9
New
May 17
First Quarter

Hourly Weather History & Observations

Time (CDT) Temp. Windchill Dew Point Humidity Pressure Visibility Wind Dir Wind Speed Gust Speed Precip Events Conditions
12:53 AM 33.1 °F 26.9 °F 23.0 °F 66% 30.11 in 10.0 mi East 6.9 mph - N/A   Clear
1:53 AM 30.9 °F 27.5 °F 24.1 °F 76% 30.14 in 10.0 mi SSE 3.5 mph - N/A   Partly Cloudy
2:53 AM 32.0 °F 26.4 °F 23.0 °F 69% 30.12 in 10.0 mi East 5.8 mph - N/A   Scattered Clouds
3:53 AM 34.0 °F 28.8 °F 21.9 °F 61% 30.12 in 10.0 mi SE 5.8 mph - N/A   Mostly Cloudy
4:53 AM 33.1 °F 26.1 °F 21.9 °F 64% 30.14 in 10.0 mi SE 8.1 mph - N/A   Overcast
5:53 AM 32.0 °F 23.0 °F 21.9 °F 66% 30.12 in 10.0 mi ESE 11.5 mph - N/A   Mostly Cloudy
6:53 AM 32.0 °F 25.6 °F 23.0 °F 69% 30.15 in 10.0 mi ESE 6.9 mph - N/A   Mostly Cloudy
7:53 AM 34.0 °F 24.6 °F 23.0 °F 64% 30.14 in 10.0 mi East 13.8 mph - N/A   Overcast
8:53 AM 33.1 °F 24.4 °F 23.0 °F 66% 30.18 in 10.0 mi ESE 11.5 mph - N/A   Partly Cloudy
9:53 AM 37.9 °F 29.2 °F 24.1 °F 57% 30.18 in 10.0 mi ESE 15.0 mph 21.9 mph N/A   Clear
10:53 AM 41.0 °F 32.5 °F 25.0 °F 53% 30.18 in 10.0 mi ESE 17.3 mph - N/A   Mostly Cloudy
11:53 AM 42.1 °F 34.2 °F 26.1 °F 53% 30.16 in 10.0 mi ESE 16.1 mph 23.0 mph N/A   Partly Cloudy
12:53 PM 44.1 °F 35.9 °F 25.0 °F 47% 30.13 in 10.0 mi SE 19.6 mph 26.5 mph N/A   Partly Cloudy
1:53 PM 46.0 °F 38.5 °F 27.0 °F 47% 30.11 in 10.0 mi SE 19.6 mph 28.8 mph N/A   Clear
2:53 PM 46.9 °F - 26.1 °F 44% 30.10 in 10.0 mi SE 16.1 mph 24.2 mph N/A   Partly Cloudy
3:53 PM 46.0 °F 38.0 °F 27.0 °F 47% 30.08 in 10.0 mi SE 21.9 mph 28.8 mph N/A   Partly Cloudy
4:53 PM 46.9 °F - 28.9 °F 50% 30.05 in 10.0 mi ESE 18.4 mph 26.5 mph N/A   Scattered Clouds
5:53 PM 50.0 °F - 30.0 °F 46% 30.06 in 10.0 mi SE 17.3 mph 26.5 mph N/A   Scattered Clouds
6:53 PM 50.0 °F - 30.9 °F 48% 30.06 in 10.0 mi ESE 15.0 mph 23.0 mph N/A   Clear
7:53 PM 48.0 °F - 30.9 °F 52% 30.07 in 10.0 mi ESE 12.7 mph - N/A   Overcast
8:53 PM 45.0 °F 39.7 °F 30.9 °F 58% 30.09 in 10.0 mi East 10.4 mph - N/A   Clear
9:53 PM 43.0 °F 36.8 °F 30.9 °F 62% 30.09 in 10.0 mi East 11.5 mph 19.6 mph N/A   Clear
10:53 PM 41.0 °F 33.9 °F 30.9 °F 67% 30.09 in 10.0 mi ESE 12.7 mph - N/A   Clear
11:53 PM 39.0 °F 31.8 °F 30.9 °F 73% 30.09 in 10.0 mi ESE 11.5 mph - N/A   Clear